Weather History for Kingsville NAS, TX

Change the Weather History Date:

Saturday, January 11, 2014

  Actual Average Record
Temperature  
Mean Temperature 66 °F -  
Max Temperature 81 °F 66 °F 86 °F (2000)
Min Temperature 50 °F 46 °F 36 °F (2012)
Growing Degree Days 16 (Base 50)    
Moisture  
Dew Point 48 °F    
Average Humidity 66    
Maximum Humidity 96    
Minimum Humidity 22    
Precipitation  
Precipitation 0.00 in - - ()
Sea Level Pressure  
Sea Level Pressure 30.04 in    
Wind  
Wind Speed 7 mph (ENE)    
Max Wind Speed 15 mph    
Max Gust Speed 20 mph    
Visibility 10 miles    
Events      
Averages and records for this station are not official NWS values.
T = Trace of Precipitation, MM = Missing Value Source: NWS Daily Summary

Daily Weather History Graph

Daily Weather History Graph

Search for Another Location

Airport:

Trip Planner

Search our weather history database for the weather conditions in past years. The results will help you decide how hot, cold, wet, or windy it might be!

Date:

Astronomy

Jan. 11, 2014 Rise Set
Actual Time 7:23 AM CST 5:55 PM CST
Civil Twilight 6:57 AM CST 6:20 PM CST
Nautical Twilight 6:28 AM CST 6:49 PM CST
Astronomical Twilight 6:00 AM CST 7:18 PM CST
Moon 2:37 PM CST (1/11) 3:33 AM CST (1/11)
Length of Visible Light 11h 23m
Length of Day
10h 32m
Waxing Gibbous, 83% of the Moon is Illuminated
Jan 11
Waxing Gibbous
Jan 15
Full
Jan 23
Last Quarter
Jan 30
New
Feb 6
First Quarter

Hourly Weather History & Observations

Time (CST) Temp. Dew Point Humidity Pressure Visibility Wind Dir Wind Speed Gust Speed Precip Events Conditions
12:56 AM 57.0 °F 54.0 °F 89% 29.90 in 10.0 mi SW 6.9 mph - N/A   Clear
1:56 AM 54.0 °F 51.1 °F 90% 29.90 in 10.0 mi SW 8.1 mph - N/A   Unknown
2:56 AM 57.0 °F 54.0 °F 89% 29.90 in 10.0 mi WSW 3.5 mph - N/A   Clear
3:56 AM 53.1 °F 52.0 °F 96% 29.92 in 10.0 mi WNW 3.5 mph - N/A   Clear
4:56 AM 51.1 °F 50.0 °F 96% 29.94 in 8.0 mi SSW 3.5 mph - N/A   Clear
5:56 AM 52.0 °F 50.0 °F 93% 29.96 in 6.0 mi SW 3.5 mph - N/A   Clear
6:56 AM 50.0 °F 48.9 °F 96% 29.98 in 9.0 mi SW 3.5 mph - N/A   Clear
7:56 AM 55.0 °F 54.0 °F 96% 30.02 in 7.0 mi Calm Calm - N/A   Clear
8:56 AM 57.9 °F 55.9 °F 93% 30.07 in 10.0 mi Calm Calm - N/A   Clear
9:56 AM 63.0 °F 57.0 °F 81% 30.10 in 10.0 mi North 5.8 mph - N/A   Clear
10:56 AM 72.0 °F 55.0 °F 55% 30.11 in 10.0 mi North 11.5 mph - N/A   Clear
11:56 AM 75.0 °F 48.0 °F 38% 30.09 in 10.0 mi North 15.0 mph - N/A   Clear
12:56 PM 78.1 °F 44.1 °F 30% 30.06 in 10.0 mi North 13.8 mph - N/A   Clear
1:56 PM 81.0 °F 39.9 °F 23% 30.04 in 10.0 mi NNE 15.0 mph 19.6 mph N/A   Clear
2:56 PM 81.0 °F 39.0 °F 22% 30.04 in 10.0 mi NNE 12.7 mph - N/A   Clear
3:56 PM 80.1 °F 41.0 °F 25% 30.04 in 10.0 mi NE 12.7 mph - N/A   Clear
4:56 PM 75.9 °F 43.0 °F 31% 30.06 in 10.0 mi East 10.4 mph - N/A   Clear
5:56 PM 68.0 °F 43.0 °F 40% 30.07 in 10.0 mi ESE 10.4 mph - N/A   Clear
6:56 PM 61.0 °F 44.1 °F 54% 30.10 in 10.0 mi ESE 6.9 mph - N/A   Clear
7:56 PM 59.0 °F 46.0 °F 62% 30.12 in 10.0 mi ESE 8.1 mph - N/A   Clear
8:56 PM 55.9 °F 45.0 °F 67% 30.13 in 10.0 mi East 9.2 mph - N/A   Clear
9:56 PM 52.0 °F 43.0 °F 71% 30.13 in 10.0 mi East 5.8 mph - N/A   Clear
10:56 PM 51.1 °F 44.1 °F 77% 30.13 in 10.0 mi East 6.9 mph - N/A   Clear
11:56 PM 50.0 °F 44.1 °F 80% 30.12 in 10.0 mi ESE 5.8 mph - N/A   Unknown